Volver al catálogo

ONEWEB-0495

ActivoComunicacionesPO
NORAD 54115·PAYLOAD·🇬🇧 United Kingdom

Lanzado Oct 22, 2022 desde Satish Dhawan Space Centre

Loading…

Próximos Pases (próximas 24 horas)

TLE

ActualizadoSource: CelesTrak SupGP

Época: Sep 14, 2026, 15:00 UTC

1 54115C 22138C   26257.62550185 -.00000665  00000+0 -16635-2 0  2574
2 54115  87.9109 287.1520 0002183  76.6527  37.1274 13.19729446    15

Sigue ONEWEB-0495 en tiempo real con AllMySat

Download on the App Store